Tracking 25612 objects as of 21-May-2022
HD Live streaming from Space Station
objects crossing your sky now

YUNHAI 1-02 DEB

Track YUNHAI 1-02 DEB now!
10-day predictions


NORAD ID: 48524
Int'l Code: 2019-063AJ
Perigee: 761.9 km
Apogee: 779.4 km
Inclination: 98.5 °
Period: 100.1 minutes
Semi major axis: 7141 km
RCS: Unknown
Launch date: September 25, 2019
Source: People's Republic of China (PRC)
Launch site: Jiuquan Satellite Launch Center, China (JSC)

Note: This is SATELLITE DEBRIS
aabbcc
Your satellite tracking list
Your tracking list is empty




NASA's NSSDC Master Catalog

Two Line Element Set (TLE):
1 48524U 19063AJ  22140.05827958  .00024608  00000-0  80338-2 0  9999
2 48524  98.5211 167.9290 0012258 146.3704 213.8263 14.38495994 58383
Source of the keplerian elements: AFSPC